Regional Weather Roundup
Issued by NWS

Home | Current Version | Previous Version | Text Only | Print | Product List | Glossary On
Versions: 1 2 3 4 5 6 7 8 9 10 11 12 13 14 15 16 17 18 19 20 21 22 23 24 25 26 27 28 29 30 31 32 33 34 35 36 37 38 39 40 41 42 43 44 45 46 47 48 49 50
468
ASUS45 KBOU 280107
RWRCO

WEATHER ROUNDUP FOR COLORADO
NATIONAL WEATHER SERVICE DENVER/BOULDER CO
700 PM MDT THU APR 27 2017

NOTE: "FAIR" INDICATES FEW OR NO CLOUDS BELOW 12000 FEET WITH NO
SIGNIFICANT WEATHER AND/OR OBSTRUCTIONS TO VISIBILITY.

COZ001>005-013-030-031-280200-
...NORTHWEST COLORADO...

CITY           SKY/WX    TMP DP  RH WIND       PRES   REMARKS
CRAIG          LGT SNOW  36  29  75 W15       29.72R
HAYDEN         FAIR      37  21  52 W25G33    29.70R
MEEKER         PTSUNNY   39  28  64 CALM      29.74R
MOUNT WERNER   NOT AVBL
STEAMBOAT SPGS CLOUDY    33  29  86 NW9       29.69R WCI  26
WALDEN           N/A     30  25  80 SW9       29.69R WCI  22
$$

COZ006>008-011-280200-
...WEST CENTRAL VALLEYS...

CITY           SKY/WX    TMP DP  RH WIND       PRES   REMARKS
GRAND JUNCTION CLOUDY    52  19  27 SW14G26   29.66S
MONTROSE       FAIR      52  15  23 NW16G25   29.68R
EAGLE          CLOUDY    42  26  53 SW12      29.70R
RIFLE          CLOUDY    43  35  73 S8        29.70R
DELTA          PTSUNNY   52  21  29 NW20G29   29.66R
NUCLA          FAIR      52   5  15 W15G30    29.74R
$$

COZ017>023-064>068-280200-
...SOUTHWEST COLORADO...

CITY           SKY/WX    TMP DP  RH WIND       PRES   REMARKS
DURANGO        FAIR      49  15  25 NW18G26   29.67R
CORTEZ         FAIR      52  17  25 NW20G28   29.70R
PAGOSA SPRINGS FAIR      46  21  37 W8        29.68S
TELLURIDE      PTSUNNY   38   0  20 NW15G29   29.78R
WOLF CREEK PAS MOCLDY    23  21  93 SW7G21    29.80R WCI  15
$$

COZ009-010-012-014-032>034-037-058>063-280200-
...CENTRAL COLORADO...

CITY           SKY/WX    TMP DP  RH WIND       PRES   REMARKS
ASPEN          HVY SNOW  30  29  96 N7        29.72R VSB 1/4 WCI  23
BUENA VISTA    FAIR      35  22  58 NW18G24   29.67R WCI  25
COPPER MTN     CLOUDY    19  14  79 MISG      29.71R
BERTHOUD PASS  FAIR      12   1  62 MISG      29.64S
COTTONWOOD PAS FAIR      32  12  43 W23G39    29.67R WCI  19
GUNNISON       FAIR      41  12  30 W14G25    29.69R
KREMMLING      CLOUDY    45  23  42 NW8       29.69S
LEADVILLE      LGT SNOW  23  18  81 VRB7      29.69R VSB 1   WCI  15
MONARCH PASS   FAIR      21  14  73 W29G38    29.81R WCI   3
SALIDA         FAIR      43  20  39 NW6       29.72S
SUNLIGHT       LGT SNOW  19  19 100 W6        29.77R WCI  11
WILKERSON PASS CLOUDY    25  14  63 W8G18     29.71R WCI  16
$$

COZ069>075-280200-
...SAN LUIS VALLEY/SANGRE DE CRISTO MOUNTAINS...

CITY           SKY/WX    TMP DP  RH WIND       PRES   REMARKS
ALAMOSA        FAIR      48  11  22 NW21G31   29.63R
LA VETA PASS   FAIR      32  18  55 W15G26    29.77R WCI  22
SAGUACHE       CLOUDY    43  14  31 N12G18    29.66S
$$

COZ035-036-038>040-280200-
...NORTHERN COLORADO FRONT RANGE...

CITY           SKY/WX    TMP DP  RH WIND       PRES   REMARKS
DENVER INTL AP MOCLDY    46  36  68 E13       29.55R
DMNS CITY PARK   N/A     48  33  55 E8G15     29.56R
AURORA         MOCLDY    46  34  62 E10       29.56R
FRONT RANGE AP NOT AVBL
ERIE MUNI ARPT FAIR      51  32  49 NE9G17    29.55R
BOULDER MUN AP FAIR      52  21  30 NW10      29.55R
CENTENNIAL     MOCLDY    46  36  68 E13       29.56R
BROOMFIELD     MOCLDY    50  21  32 NW12G17   29.55S
FORT COLLINS   FAIR      47  37  68 E12       29.56R
LONGMONT       FAIR      53  26  35 NW8       29.56S HAZE
$$

COZ041-046-047-076>085-087-088-280200-
...PIKES PEAK/PALMER DIVIDE AND SOUTHERN FOOTHILLS...

CITY           SKY/WX    TMP DP  RH WIND       PRES   REMARKS
COLO. SPRINGS  FAIR      47  32  56 N24       29.55R
A. F. ACADEMY  FAIR      41  34  76 N15       29.56S
SCHRIEVER AFB  FAIR      45  31  58 N21G31    29.55R
ELLICOTT       FAIR     N/A N/A N/A NE21G26   29.54R
FALCON         FAIR      40  34  77 N14G21    29.58S
FORT CARSON    FAIR      50  32  50 N13       29.55R
LIMON          CLOUDY    39  38  96 N15       29.56R
MONUMENT HILL  LGT RAIN  32  32 100 CALM      29.62R
TRINIDAD       FAIR      53  30  41 NW8       29.55R
$$

COZ042>045-048>051-090-091-280200-
...NORTHEAST COLORADO...

CITY           SKY/WX    TMP DP  RH WIND       PRES   REMARKS
GREELEY ARPT   FAIR      45  38  76 E5        29.57R
AKRON          RAIN      37  34  89 N23G29    29.57F FOG
BURLINGTON     NOT AVBL
WRAY           NOT AVBL
STERLING       LGT RAIN  39  37  93 NE15      29.58S
HOLYOKE        LGT RAIN  45  41  87 E16       29.56S
FORT MORGAN    FAIR      40  37  90 NE10      29.54R
$$

COZ086-089-092>099-280200-
...SOUTHEAST COLORADO...

CITY           SKY/WX    TMP DP  RH WIND       PRES   REMARKS
PUEBLO         FAIR      56  33  42 NW22G30   29.51R
LA JUNTA       CLOUDY    54  38  54 N24       29.50R
LAMAR          TSTM      55  40  56 NW15G28   29.47R
SPRINGFIELD      N/A     59  36  42 VRB3      29.44R
$$




USA.gov is the U.S. government's official web portal to all federal, state and local government web resources and services.